CAPE
0 0 0 0 0 0 0 0 0 0 0 0 0 0 0 0 0 0 0 0 0 0 0 0 0 0 0 4 23 103 9 68 52 112 77 394 416 647 509 513 530 654 839 432 121
0 0 0 0 0 0 0 0 0 0 0 0 0 0 0 0 0 0 0 0 0 0 0 0 0 0 113 84 64 50 55 40 79 152 369 478 649 662 622 561 577 647 511 279 2
0 0 0 0 0 0 0 0 0 0 0 0 0 0 0 0 0 0 0 0 0 0 0 0 0 9 68 92 219 138 93 230 452 414 526 643 770 801 599 617 719 673 452 145 0
0 0 0 0 0 0 0 0 0 0 0 0 0 0 0 0 0 0 0 0 0 0 0 0 0 24 33 75 222 270 384 511 596 711 731 873 783 603 689 611 495 711 496 0 0
0 0 0 0 0 0 0 0 0 0 0 0 0 0 0 0 0 0 0 0 0 0 0 0 5 48 17 130 288 369 525 689 731 839 806 744 734 505 429 502 543 600 334 0 0
0 0 0 0 0 0 0 0 0 0 0 0 0 0 0 0 0 0 0 0 0 0 8 24 42 18 47 58 191 268 453 640 729 708 726 729 583 522 343 493 519 315 17 0 0
0 0 0 0 0 0 0 0 0 0 0 0 0 0 0 0 0 0 0 0 0 0 11 0 14 72 100 183 260 361 574 772 754 776 742 638 645 351 240 365 156 32 2 1 0
0 0 0 0 0 0 0 0 0 0 0 0 0 0 0 0 0 0 0 0 0 0 0 0 10 24 127 202 328 374 344 539 866 831 830 626 667 357 190 172 48 41 3 1 0
0 0 0 0 0 0 0 0 0 0 0 0 0 0 0 0 0 0 0 0 0 0 0 0 11 72 142 213 0 96 125 95 641 656 879 795 820 409 283 235 90 52 5 3 3
0 0 0 0 0 0 0 0 0 0 0 0 0 0 0 0 0 0 0 0 0 0 0 0 0 4 0 52 20 18 33 98 31 793 693 489 657 464 319 266 242 141 98 2 4
0 0 0 0 0 0 0 0 0 0 0 0 0 0 0 0 0 0 0 0 0 0 0 7 0 0 6 18 0 43 74 79 246 315 195 366 520 379 408 453 439 295 118 15 3
0 0 0 0 0 0 0 0 0 0 0 0 0 0 0 0 0 0 0 0 0 0 0 0 0 32 0 24 23 62 73 136 188 389 193 439 538 280 352 344 153 58 259 166 14
0 0 0 0 0 0 0 0 0 0 0 0 0 0 0 0 0 0 0 0 0 0 0 0 3 12 6 48 103 76 70 172 62 399 185 241 335 305 230 67 66 25 35 43 23
0 0 0 0 0 0 0 0 0 0 0 0 0 0 0 0 0 1 0 0 0 0 0 0 16 20 40 76 50 55 204 82 49 77 63 156 52 479 228 80 12 8 32 63 71
0 0 0 0 0 0 0 0 0 0 0 0 0 0 0 0 0 0 0 0 0 0 0 0 15 39 28 143 114 39 136 80 39 15 48 340 283 271 201 22 3 26 38 36 58
0 0 0 0 0 0 0 0 0 0 39 0 0 0 0 0 0 0 0 0 0 0 0 0 41 1 2 92 86 126 73 74 80 77 94 192 177 167 80 30 0 3 11 24 28
0 0 0 0 0 0 0 0 0 8 19 0 0 0 0 0 0 0 0 0 0 0 0 0 25 26 47 132 136 145 126 46 57 244 203 267 152 233 31 2 0 2 9 2 7
0 0 0 0 0 0 0 0 19 25 22 0 0 0 0 2 5 0 0 17 11 3 4 42 23 63 7 22 61 101 32 6 2 37 63 196 295 17 13 14 0 7 8 11 13
0 0 0 0 0 0 0 0 28 67 131 103 36 6 0 7 41 4 4 27 65 71 52 84 127 3 0 9 0 0 1 27 3 0 4 217 28 0 0 0 0 25 26 29 41
0 0 0 0 0 0 0 4 187 188 219 204 35 29 9 23 25 44 35 67 46 25 19 94 121 88 1 0 0 0 0 0 2 96 120 235 264 25 0 2 5 20 40 37 27
0 0 0 0 0 0 0 107 258 161 216 227 115 92 16 132 149 80 100 22 0 0 4 5 4 52 0 0 0 0 4 8 0 0 8 12 196 48 23 7 0 32 14 41 43
0 0 0 0 0 0 3 179 86 120 87 190 319 339 321 307 285 277 232 126 0 0 0 0 0 0 0 0 0 0 0 0 0 126 66 10 56 14 10 8 3 3 2 1 0
0 0 0 0 0 0 196 138 103 130 109 80 3 56 77 87 77 71 82 0 0 6 33 7 0 0 3 1 0 0 0 0 0 0 4 67 112 29 4 0 0 4 5 1 0
0 0 0 0 0 228 228 124 113 58 44 89 50 69 65 64 46 63 67 0 0 0 0 0 0 0 0 3 0 0 0 0 0 0 33 61 129 37 1 0 6 8 0 0 0
0 0 0 0 0 140 301 158 199 80 18 6 36 58 88 113 66 64 89 5 0 0 0 0 0 0 0 0 0 0 0 0 0 0 0 11 5 43 0 11 28 3 0 0 0
508 10 0 0 115 295 140 169 123 102 93 101 145 1 3 96 84 60 32 12 26 0 0 0 1 0 0 0 0 0 0 0 0 0 0 14 27 19 1 10 5 0 0 0 0
632 673 17 0 6 157 137 184 212 188 105 65 59 102 123 99 83 249 257 185 0 1 0 0 10 0 32 0 0 8 15 0 2 3 1 5 30 22 12 4 0 0 0 0 0
CIN
0 0 0 0 0 0 0 0 0 0 0 0 0 0 0 0 0 0 0 0 0 0 0 0 0 0 0 -21 -26 -8 -34 -7 -4 -2 -29 -28 -8 -27 -24 -3 -11 -4 -1 -47 -20
0 0 0 0 0 0 0 0 0 0 0 0 0 0 0 0 0 0 0 0 0 0 0 0 0 0 -7 -12 -5 -44 -9 -7 -19 -7 -3 -5 -2 -10 -2 -1 -6 -22 -25 -34 -4
0 0 0 0 0 0 0 0 0 0 0 0 0 0 0 0 0 0 0 0 0 0 0 0 0 -6 -3 -18 -4 -9 -8 -3 -4 -3 -2 -2 -1 -8 -1 -17 -1 -1 -12 -41 0
0 0 0 0 0 0 0 0 0 0 0 0 0 0 0 0 0 0 0 0 0 0 0 0 0 -6 -10 -6 -2 -5 -9 -4 -24 -26 -7 -3 -1 -32 -28 -17 -17 -3 -1 -1 0
0 0 0 0 0 0 0 0 0 0 0 0 0 0 0 0 0 0 0 0 0 0 0 0 -2 -8 -27 -4 -4 -5 -12 -20 -42 -30 -27 -34 -24 -68 -85 -66 -21 -12 -13 0 0
0 0 0 0 0 0 0 0 0 0 0 0 0 0 0 0 0 0 0 0 0 0 -17 -5 -7 -5 -4 -14 -4 -15 -21 -27 -31 -47 -37 -8 -46 -46 -96 -58 -20 -18 -41 0 0
0 0 0 0 0 0 0 0 0 0 0 0 0 0 0 0 0 0 0 0 0 0 -7 0 -19 -6 -7 -10 -20 -26 -22 -28 -33 -26 -19 -2 -3 -64 -94 -57 -63 -85 0 0 0
0 0 0 0 0 0 0 0 0 0 0 0 0 0 0 0 0 0 0 0 0 0 0 0 -47 -10 -2 -20 -8 -5 -15 -10 -10 -27 -50 -51 -3 -86 -100 -74 -105 -83 0 0 0
0 0 0 0 0 0 0 0 0 0 0 0 0 0 0 0 0 0 0 0 0 0 0 0 -33 -5 -22 -11 0 -49 -7 -4 -19 -56 -20 -27 -4 -71 -58 -34 -46 -81 -1 -1 -1
0 0 0 0 0 0 0 0 0 0 0 0 0 0 0 0 0 0 0 0 0 0 0 0 0 -8 0 -40 -14 -4 -8 -6 -3 -27 -42 -2 -1 -45 -53 -40 -16 -12 -21 -6 -1
0 0 0 0 0 0 0 0 0 0 0 0 0 0 0 0 0 0 0 0 0 0 0 -14 0 0 -26 -5 0 -6 -4 -7 -13 -37 -8 -2 -2 -50 -37 -19 -2 -1 -3 -12 -1
0 0 0 0 0 0 0 0 0 0 0 0 0 0 0 0 0 0 0 0 0 0 0 0 -5 -21 -2 -24 -3 -4 -5 -49 -7 -35 -14 -4 -3 -65 -32 -21 -18 -15 -2 -1 -2
0 0 0 0 0 0 0 0 0 0 0 0 0 0 0 0 0 0 0 0 0 0 0 0 -6 -15 -24 -6 -5 -5 -30 -3 -4 -4 -12 -1 -3 -28 -33 -31 -20 -2 -2 -3 -9
0 0 0 0 0 0 0 0 0 0 0 0 0 0 0 0 0 -1 0 0 0 0 0 0 -7 -14 -7 -3 -25 -4 -5 -3 -21 -37 -35 -94 -8 -2 -6 -3 -2 -2 -2 -2 -2
0 0 0 0 0 0 0 0 0 0 -1 0 0 0 0 0 0 0 0 0 0 0 0 -4 -7 -4 -5 -5 -9 -2 -16 -6 -36 -6 -54 -3 -6 -7 -2 -11 -24 -9 -2 -2 -8
0 0 0 0 0 0 0 0 0 0 -9 0 0 0 0 0 0 0 0 0 0 0 0 0 -41 -5 -11 -32 -34 -23 -7 -24 -23 -31 -11 -16 -56 -2 -21 -33 0 -18 -6 -7 -3
0 0 0 0 0 0 0 0 0 -35 -18 0 0 0 0 0 0 0 0 0 0 0 0 0 -15 -74 -93 -23 -17 -8 -11 -7 -6 -19 -15 -38 -5 -3 -52 -3 0 -13 -8 -29 -3
0 0 0 0 0 0 0 0 -11 -5 -10 0 0 0 0 -6 -6 0 0 -5 -19 -21 -8 -10 -10 -18 -106 -48 -21 -11 -3 -3 -5 -4 -8 -11 -2 -29 -84 -112 -3 -10 -7 -4 -4
0 0 0 0 0 0 0 0 -6 -6 -6 -5 -15 -50 0 -6 -6 -16 -9 -11 -20 -32 -14 -6 -26 -13 0 -77 0 0 -3 -9 -2 0 -5 -16 -99 -1 0 0 -1 -2 -3 -4 -3
0 0 0 0 0 0 0 -17 -3 -17 -22 -6 -4 -9 -9 -7 -13 -11 -14 -37 -31 -76 -64 -7 -11 -22 -19 0 0 0 0 0 -5 -3 -4 -12 -7 -14 0 -1 -2 -4 -2 -5 -17
0 0 0 0 0 0 0 -2 -4 -45 -37 -7 -3 -11 -6 -11 -3 -21 -15 -69 -16 0 -70 -14 -25 -11 0 0 0 0 -2 -3 -1 0 -3 -5 -10 -48 -55 -55 -2 -4 -10 -10 -4
0 0 0 0 0 0 -23 -11 -95 -43 -69 -35 -25 -2 -2 -6 -3 -6 -4 -59 0 0 0 0 0 0 0 0 0 0 0 0 0 -4 -5 -8 -30 -105 -77 -3 -15 -1 -19 -5 -4
0 0 0 0 0 0 -28 -31 -45 -39 -63 -22 -50 -54 -22 -24 -23 -40 -41 0 0 -64 -61 -62 0 0 -3 -6 0 0 0 0 0 0 -1 -5 -9 -52 -37 0 0 -8 -28 -3 0
0 0 0 0 0 -17 -6 -20 -24 -51 -74 -57 -68 -24 -18 -9 -27 -29 -37 0 0 0 0 0 0 0 0 -8 0 0 0 0 0 0 -13 -7 -7 -2 -1 0 -12 -9 0 0 0
0 0 0 0 0 -2 -7 -8 -5 -31 -18 -15 -18 -12 -17 -13 -24 -26 -6 -100 0 0 0 0 0 0 0 0 0 0 0 0 -1 0 0 -2 -6 -5 0 -5 -2 -1 0 0 0
-8 -20 0 0 -51 -3 -19 -8 -8 -24 -15 -5 -4 -31 -60 -19 -11 -4 -7 -5 -2 0 0 0 -3 0 0 0 0 0 0 0 0 0 0 -1 -2 -17 -1 -1 -2 0 0 0 0
-15 -24 -62 -1 -12 -2 -9 -4 -4 -8 -20 -46 -43 -22 -33 -55 -48 -25 -11 -10 0 -1 0 0 -5 0 -2 0 0 -1 -3 0 -1 -3 -1 -3 -3 -1 -2 -3 0 0 0 0 0
Wind_Speed
23 22 20 19 19 18 17 16 10 13 14 14 15 17 19 19 20 26 25 8 21 27 22 22 20 20 19 19 16 7 8 18 17 16 16 17 17 16 15 17 18 18 17 13 11
24 23 22 21 20 19 19 18 17 14 14 15 16 18 19 19 26 28 13 25 25 27 25 23 21 19 19 19 16 16 9 18 18 18 17 16 17 16 14 15 16 16 15 13 10
24 23 22 21 20 19 18 18 17 12 15 15 18 19 19 21 25 6 24 26 27 27 22 19 17 16 19 10 12 18 18 18 19 18 17 16 16 16 16 17 16 11 11 11 10
23 23 22 21 21 19 18 17 17 15 14 17 19 19 20 24 12 4 26 28 28 24 20 19 19 16 16 16 15 16 16 16 17 18 17 16 16 18 20 19 17 11 10 10 9
25 23 21 21 20 19 18 17 17 6 14 18 20 19 21 23 9 9 21 28 25 21 21 20 18 13 15 16 15 16 16 17 16 17 17 16 18 17 18 18 16 14 12 11 10
25 23 21 21 20 19 18 18 18 16 18 20 21 20 25 19 8 17 11 26 23 21 20 17 13 13 16 16 16 14 15 16 15 15 15 15 15 13 17 16 15 13 11 11 9
25 22 20 20 20 20 19 19 19 18 18 22 23 23 27 14 15 22 20 25 20 18 19 15 15 14 11 16 14 14 14 14 15 14 15 14 15 18 15 14 14 12 12 11 8
19 20 20 19 20 20 20 20 19 18 19 23 23 24 23 16 26 27 24 20 19 17 18 17 16 13 12 13 15 11 16 10 17 15 15 12 15 15 13 13 12 11 11 10 6
18 18 20 19 20 20 20 19 18 8 12 14 21 28 8 13 31 29 25 22 22 20 19 17 15 13 14 12 28 3 16 18 18 19 16 8 16 14 11 11 11 10 10 10 7
18 18 19 19 19 20 20 18 12 11 9 24 25 26 1 22 30 29 23 22 22 19 16 14 14 17 19 12 21 21 25 17 22 20 14 12 15 13 12 12 11 13 11 8 8
20 19 18 19 19 19 19 9 9 10 15 10 10 30 19 2 5 27 26 23 21 19 15 13 15 9 17 23 24 24 21 21 18 18 16 17 13 11 11 11 13 14 13 10 13
21 20 18 19 19 19 18 5 14 15 6 18 12 19 7 12 19 22 23 21 16 19 10 15 12 13 23 22 22 7 14 21 23 17 19 13 10 11 11 13 16 19 13 10 10
22 20 19 19 19 15 17 12 17 17 21 7 25 22 21 28 23 18 22 20 20 18 15 15 18 18 21 15 13 29 16 27 32 17 15 13 9 13 11 13 16 18 17 11 9
21 20 19 19 14 11 10 13 19 18 8 7 17 24 3 27 25 20 17 23 20 15 22 17 20 18 4 4 19 13 22 27 22 19 23 5 23 12 12 14 19 19 18 15 12
20 20 20 18 18 10 12 15 11 10 18 3 8 20 28 24 26 17 17 22 21 24 7 6 5 8 3 23 24 14 28 26 23 19 12 6 10 13 17 17 20 19 18 20 20
20 20 20 12 16 15 16 10 11 6 16 9 2 1 23 23 26 9 12 21 26 23 16 16 16 14 20 20 20 21 18 17 14 17 11 15 10 17 17 18 19 21 22 23 24
20 22 21 19 5 14 15 8 8 16 10 7 3 13 13 11 21 16 11 10 12 8 12 6 1 13 16 11 12 15 17 20 19 15 17 10 17 18 17 19 19 18 22 23 25
20 22 13 24 17 18 18 11 21 6 8 4 5 6 9 20 15 11 6 11 9 15 19 15 4 5 13 15 18 19 19 20 18 19 25 10 16 14 18 19 18 19 20 23 26
20 16 14 9 19 18 5 9 7 5 12 13 3 4 22 11 14 9 11 18 15 16 5 21 17 14 15 18 20 21 13 20 18 11 12 15 18 13 14 18 17 19 21 23 25
6 6 3 10 12 7 15 23 17 17 20 22 7 7 6 17 7 6 5 9 7 14 19 17 11 13 16 20 10 14 22 17 10 17 21 16 15 19 14 18 19 18 20 25 29
13 8 8 8 13 6 9 6 12 16 19 21 28 13 28 15 18 13 15 14 14 17 20 20 14 15 16 13 20 18 16 16 17 16 21 20 18 16 17 18 20 23 24 25 26
13 10 6 6 10 13 5 10 17 13 16 17 19 18 17 18 18 21 18 18 15 18 18 19 19 17 17 19 16 16 18 17 17 17 18 19 18 16 17 20 23 25 23 23 24
12 10 7 7 10 7 8 8 15 14 14 14 13 13 14 15 20 18 15 19 15 19 18 21 17 16 9 10 14 14 18 17 15 15 15 19 18 12 17 21 22 22 23 24 25
11 11 7 5 25 21 5 4 6 10 9 14 15 16 17 19 20 19 14 18 16 16 17 17 14 10 12 19 17 15 16 16 16 16 23 23 20 16 19 22 21 21 22 23 22
11 10 8 6 3 8 6 4 4 17 13 12 21 18 19 22 23 18 12 14 12 14 17 16 13 12 15 15 16 16 15 17 19 19 18 24 21 20 21 23 21 21 21 21 22
13 13 5 11 12 7 6 4 4 11 14 15 19 18 19 22 24 26 13 9 12 14 16 14 14 12 12 13 14 14 14 16 16 18 17 19 20 20 19 18 20 19 20 19 23
14 14 17 10 10 8 4 5 5 7 15 15 15 17 19 22 21 20 18 18 17 14 14 13 15 13 12 15 16 13 10 13 16 16 17 21 23 19 20 21 19 18 19 23 24
Wind_Direction
309 303 298 297 300 304 291 291 227 127 134 120 165 184 192 200 201 173 137 174 153 143 175 162 160 148 146 127 160 265 307 39 35 25 41 69 61 36 37 38 13 8 13 68 62
308 304 303 306 307 311 319 338 352 85 104 101 172 187 194 200 177 149 219 139 126 148 154 150 129 142 112 130 149 33 40 18 4 21 55 65 36 46 56 40 27 23 33 54 58
307 307 304 305 305 306 322 332 338 158 70 104 184 192 196 193 148 145 188 141 148 154 178 187 186 176 95 223 290 18 28 38 22 23 40 36 28 34 34 20 24 43 46 50 46
300 301 304 304 301 301 305 293 302 309 46 164 194 201 202 189 53 283 180 141 151 174 185 176 169 181 46 17 355 22 1 21 30 39 41 32 29 10 3 8 15 38 49 47 37
312 302 290 298 297 303 300 308 312 123 309 188 203 212 204 162 258 222 191 147 165 180 172 160 167 202 345 24 52 38 35 42 53 48 33 33 8 21 14 17 29 45 47 38 31
319 310 286 284 283 284 296 294 299 284 228 207 211 222 203 162 247 210 180 149 179 181 169 203 270 273 349 353 312 37 82 78 70 52 42 27 23 24 17 29 36 44 47 39 37
311 299 279 278 284 279 276 272 279 225 202 205 213 218 191 260 223 204 211 183 206 212 180 230 237 230 97 44 69 89 76 74 69 51 35 32 20 10 29 35 36 43 36 38 47
282 280 274 261 272 256 252 250 240 208 193 197 218 210 199 234 194 196 205 222 221 232 216 206 189 102 142 67 89 121 34 125 40 40 25 30 15 20 38 38 48 47 40 36 52
273 267 269 258 265 249 247 253 256 318 73 113 217 194 245 232 183 179 205 196 202 196 198 206 179 161 133 119 341 104 21 7 21 21 19 55 15 25 41 42 43 42 34 31 57
271 260 260 259 255 250 252 257 319 16 355 196 213 207 30 142 159 187 219 221 180 172 155 165 171 40 304 236 17 5 337 21 11 15 25 27 16 31 31 31 28 24 26 37 35
274 269 248 252 248 248 253 333 354 347 125 262 125 182 128 110 248 170 197 191 176 163 179 149 207 80 210 339 333 343 359 355 9 15 11 358 14 27 26 24 17 12 11 14 10
281 270 248 251 252 255 256 3 312 292 276 250 248 240 130 122 135 148 161 169 150 188 109 196 191 355 326 335 345 54 17 7 349 6 1 5 12 15 22 20 11 3 12 11 14
281 266 252 254 258 277 266 309 273 274 249 265 225 230 227 180 163 142 158 170 192 194 185 206 283 332 342 5 15 306 3 344 341 0 351 351 353 10 23 19 13 8 7 20 11
272 261 254 255 281 311 357 303 260 259 343 263 252 235 165 169 180 188 153 191 195 183 248 207 320 354 65 200 347 3 350 345 348 347 346 29 338 8 22 18 11 11 10 9 7
267 256 250 256 264 311 314 289 294 272 284 124 139 244 185 168 183 162 171 198 199 220 38 184 42 28 212 341 345 347 339 342 343 342 349 342 343 19 12 16 7 8 8 8 5
262 253 250 272 263 283 267 318 289 80 297 297 358 124 170 173 195 180 153 188 215 227 198 207 352 359 347 347 353 351 352 349 347 354 332 350 12 358 5 3 8 8 7 2 358
257 247 248 251 319 288 275 329 64 194 319 327 288 132 139 127 169 150 132 135 155 149 198 202 291 5 2 5 6 7 359 346 349 347 342 1 345 358 8 9 7 7 2 6 2
254 247 262 233 268 261 261 116 284 4 355 327 291 107 132 153 138 122 67 163 148 206 231 238 331 338 5 4 353 345 350 351 345 345 341 7 350 5 18 14 12 8 5 3 359
255 268 273 291 258 268 22 145 347 24 304 279 336 309 180 121 227 131 158 205 332 343 206 248 348 355 359 356 356 354 353 355 348 333 330 358 355 3 16 19 12 8 4 1 358
305 342 66 283 287 0 164 213 305 293 264 248 272 128 156 155 122 113 121 20 18 350 337 345 343 0 359 353 357 8 349 353 359 350 349 2 355 359 11 7 9 7 4 1 358
111 69 309 295 290 103 132 39 324 288 262 252 231 275 232 287 279 197 319 351 352 340 334 334 350 348 358 9 356 353 0 4 356 349 344 343 359 10 5 8 5 4 0 358 356
133 93 339 306 118 144 109 351 265 295 263 262 256 271 282 285 300 298 322 337 350 338 338 342 341 338 348 358 1 3 357 360 355 3 353 351 353 16 15 11 4 357 4 360 358
112 42 318 299 118 115 355 2 280 274 281 275 284 314 310 314 304 324 342 343 343 333 338 344 355 353 353 19 18 12 5 6 6 1 357 352 355 26 14 6 4 359 357 357 360
80 68 48 121 245 275 75 63 324 298 325 282 295 311 321 309 311 327 350 350 352 356 357 3 2 9 360 354 3 7 11 10 10 3 353 356 6 13 7 2 5 2 2 2 6
82 30 349 110 70 330 347 67 68 272 323 328 262 300 305 291 304 331 355 360 20 12 5 9 14 19 9 8 6 7 7 6 2 0 359 351 357 7 6 1 3 6 6 7 7
355 356 64 341 304 333 341 51 41 315 294 293 294 316 324 301 306 305 347 16 5 15 8 24 18 21 17 16 10 6 7 8 12 6 3 359 356 0 3 8 7 8 8 10 4
341 311 288 329 288 299 88 70 26 333 307 323 327 330 333 327 328 327 340 339 348 9 17 28 17 17 18 12 7 10 21 16 6 9 4 357 4 6 4 6 9 10 11 5 3